Temp
79 79 79 80 82 83 83 83 83 84 83 83 83 84 85 85 83 83 83 81 81 81 81 81 81 82 82 83 83 83 84 84 84 85 84 85 85 85 85 86 86 85 86 86 86 85 86 86 86 86 86 86 86 86 85 85 85 87 86 86 86 86 86
77 79 80 79 81 82 83 83 83 84 84 84 84 83 85 84 83 83 82 82 82 82 81 81 81 82 82 83 84 83 83 84 84 84 85 84 84 84 86 85 85 85 85 86 86 86 86 86 86 86 86 86 86 86 86 86 86 86 87 86 86 86 86
77 79 79 79 80 81 82 83 83 84 84 85 85 84 84 83 83 83 82 82 81 82 83 82 81 82 83 83 82 83 84 85 84 85 85 86 85 88 86 86 86 87 87 87 86 87 87 87 86 86 86 86 88 86 86 86 86 86 86 86 86 87 85
77 78 79 80 80 81 82 82 82 83 85 85 85 86 85 83 85 84 84 84 82 82 81 82 83 83 83 82 82 83 83 84 85 87 87 87 87 87 86 85 85 87 86 86 88 88 89 87 87 86 85 86 86 87 87 86 87 86 86 85 86 86 85
77 78 78 78 79 80 82 82 82 82 83 84 84 85 85 85 85 85 85 85 86 84 85 85 86 85 84 84 85 85 84 85 85 86 87 87 86 86 86 87 87 87 87 88 87 86 85 86 87 87 86 85 87 86 86 86 87 86 86 86 85 86 87
76 76 77 78 78 79 80 82 84 83 84 82 83 84 85 86 85 84 84 83 84 85 85 85 84 84 83 85 85 85 85 84 84 85 86 86 85 86 87 87 88 88 89 87 88 88 87 87 88 88 88 89 89 89 89 88 88 88 87 86 86 87 88
74 75 76 77 78 79 80 80 83 84 83 83 83 84 86 86 84 85 85 84 84 83 84 84 85 84 84 84 84 84 83 85 84 85 86 87 86 86 86 87 87 89 90 88 87 88 88 87 87 87 87 89 88 89 87 86 87 87 87 86 85 86 86
70 72 74 77 78 80 80 79 80 82 82 83 83 82 84 85 86 84 83 83 83 83 83 83 84 84 83 83 84 84 85 86 86 86 85 86 86 86 88 87 87 87 87 88 88 88 88 87 89 88 88 88 88 87 88 86 86 88 88 87 86 86 89
70 71 72 74 77 78 78 79 80 81 80 80 80 81 82 82 82 82 82 82 82 82 82 83 83 86 84 83 83 84 85 86 86 86 85 86 87 88 90 89 89 88 87 89 90 88 88 89 89 87 87 87 87 86 87 86 87 88 87 87 86 86 88
70 69 70 72 74 73 75 78 78 79 78 78 78 79 80 80 81 82 82 81 82 82 82 83 84 84 82 83 83 85 85 85 86 87 87 87 87 87 89 90 90 89 88 89 91 90 88 88 89 87 85 86 86 86 86 86 87 88 88 86 86 86 86
71 70 70 70 70 71 73 76 77 76 77 77 78 78 79 79 79 80 81 81 81 82 83 84 84 84 84 83 83 82 83 86 86 86 86 87 88 87 88 89 90 89 89 90 90 90 90 88 88 87 86 87 87 86 86 87 87 87 88 88 88 88 88
69 70 70 70 70 70 71 73 75 76 76 77 78 78 77 78 79 80 80 81 82 82 82 82 83 83 82 82 82 82 81 82 85 86 86 86 87 87 87 88 89 89 89 90 89 89 90 89 89 88 87 87 87 88 87 86 87 86 87 89 89 88 88
68 68 69 69 69 69 70 72 73 74 74 76 77 77 77 77 78 78 78 79 80 80 80 80 81 81 82 82 82 81 81 82 84 85 86 85 86 87 87 88 89 89 89 90 89 89 90 91 89 88 88 87 88 88 87 87 87 86 86 87 88 88 87
66 66 68 69 69 69 69 71 72 72 73 75 76 76 76 77 77 77 77 77 78 79 78 77 77 77 78 80 80 80 81 82 82 82 82 83 83 84 86 87 87 87 87 88 88 89 89 90 90 90 89 89 88 88 88 87 87 86 86 86 87 88 88
67 67 67 66 67 69 71 70 71 71 72 73 74 74 76 76 76 76 76 76 76 76 76 76 77 75 74 75 77 78 80 80 80 81 80 80 80 81 83 83 84 84 85 85 87 89 89 90 90 89 89 89 88 88 88 89 88 88 87 86 86 87 88
70 68 67 66 66 67 69 70 71 71 71 70 71 73 74 74 74 74 73 73 74 73 73 74 76 74 73 72 73 75 76 77 78 78 79 77 77 78 79 82 83 84 84 84 85 85 85 86 87 88 88 88 88 88 89 89 89 85 79 80 87 87 89
69 67 67 67 67 67 68 69 69 70 70 70 71 71 70 70 71 72 72 72 73 72 72 74 73 73 72 72 74 74 74 73 73 75 76 76 75 76 77 78 79 80 80 81 82 82 82 84 85 87 88 88 88 88 90 90 91 79 71 69 71 83 86
66 66 66 68 68 68 67 67 66 67 67 68 69 69 69 70 70 71 69 70 71 71 72 73 74 73 72 72 73 74 75 74 73 73 73 73 74 76 77 77 77 78 78 80 82 81 84 84 83 83 86 87 88 88 89 90 75 68 69 69 67 72 83
66 66 66 67 67 67 66 65 66 66 66 67 67 68 69 69 69 67 68 68 70 71 71 71 72 72 71 72 74 75 75 75 75 74 74 73 74 74 75 76 76 77 78 78 80 81 81 81 82 83 83 84 83 85 86 87 68 66 66 67 66 65 74
65 66 66 66 66 66 66 66 66 65 65 66 66 67 67 68 67 68 69 68 69 69 70 69 69 70 70 71 72 73 73 74 75 74 75 75 74 74 75 75 75 76 77 78 78 78 79 81 81 81 80 81 81 82 84 84 70 63 63 63 64 64 71
64 64 64 64 64 65 66 67 67 66 65 66 66 67 67 68 69 69 68 68 68 70 69 69 69 69 70 70 70 71 72 72 73 73 74 75 74 74 73 73 73 74 75 76 77 77 77 77 78 80 81 83 85 84 85 79 61 60 59 60 62 62 72
66 64 64 64 64 65 66 66 65 65 65 66 66 66 67 67 68 69 67 69 68 68 70 70 70 70 71 71 71 71 72 73 72 71 72 73 74 74 73 72 72 72 73 74 75 77 77 78 79 79 79 79 80 80 78 74 60 59 59 58 60 63 82
69 67 67 67 67 65 66 68 68 68 68 67 66 66 66 68 69 69 69 69 69 69 70 70 70 70 70 70 71 72 72 73 73 72 72 72 73 72 71 72 72 72 73 73 73 74 74 76 76 77 77 77 77 75 73 74 64 58 57 58 59 71 81
72 71 69 68 68 68 67 68 69 69 69 67 66 67 68 70 69 68 68 69 70 69 70 71 70 71 70 71 73 72 72 72 72 71 72 73 74 73 71 72 73 74 75 73 71 70 71 72 73 74 75 76 75 75 74 73 66 56 56 57 59 72 78
72 71 71 71 70 69 69 68 69 69 69 69 67 67 68 68 68 68 67 69 70 69 69 69 69 69 70 71 73 74 74 74 73 73 72 71 71 73 73 73 73 74 74 72 71 70 70 70 70 71 72 74 74 73 73 73 69 57 56 57 58 69 77
69 69 69 70 71 71 69 69 69 69 67 66 66 69 70 71 70 67 66 66 68 67 67 68 68 70 71 71 72 74 74 75 74 74 74 72 72 72 72 73 73 73 73 73 73 72 71 71 70 70 71 74 74 74 73 72 72 65 55 54 56 60 72
71 71 70 71 70 69 69 68 67 66 66 65 67 70 71 71 69 67 67 67 68 67 68 69 70 71 72 72 73 73 73 75 74 74 74 73 72 72 72 73 72 72 72 72 73 74 74 74 73 73 73 75 76 75 74 74 72 66 55 54 54 56 64
70 71 71 69 68 69 69 69 67 67 67 68 70 71 72 70 67 66 67 67 67 68 70 70 71 71 72 71 72 73 74 74 74 75 76 74 74 72 72 72 73 73 73 72 72 72 72 73 74 74 73 73 73 73 72 73 72 71 61 55 54 53 57
68 68 68 68 68 70 70 68 68 68 69 70 71 71 71 70 67 66 66 65 65 68 70 70 71 71 71 70 70 70 71 72 72 74 75 75 74 73 72 73 73 73 73 72 72 72 71 71 72 73 72 72 72 72 72 71 72 66 68 58 53 52 53
67 68 69 71 71 70 70 67 67 68 69 69 68 68 69 68 66 66 65 64 67 69 70 70 70 70 70 70 70 70 71 72 72 72 73 73 73 73 72 71 72 72 72 72 72 71 70 70 71 72 73 72 72 72 72 72 72 69 65 64 55 52 51
66 67 68 68 69 69 69 68 66 67 67 67 67 67 68 68 66 65 64 65 67 68 69 69 69 69 69 69 70 70 71 71 72 72 72 73 73 72 72 72 72 71 71 72 71 71 70 69 70 69 70 70 70 72 72 73 74 74 69 64 62 56 53
62 65 65 66 66 67 68 68 68 66 65 65 67 67 67 68 68 64 63 65 66 68 69 69 68 68 68 69 69 70 72 72 73 72 72 73 73 73 73 73 72 71 70 71 70 70 70 69 70 70 70 69 70 70 71 72 72 72 72 70 69 66 59
63 64 64 63 64 65 66 67 66 65 65 64 66 68 68 67 67 66 66 66 68 69 69 68 68 67 67 67 69 70 70 70 72 73 73 73 74 74 74 74 73 72 70 70 70 70 70 70 70 70 70 69 70 70 70 70 70 71 71 70 71 72 71
63 64 64 65 65 66 65 65 64 64 63 63 64 65 66 66 65 66 67 68 69 70 68 67 67 67 67 68 69 69 70 70 68 70 73 73 74 74 74 74 74 72 70 70 70 69 69 70 69 69 70 71 70 70 70 70 70 69 68 68 67 70 72
63 63 63 64 64 65 64 64 64 63 63 62 64 65 65 65 66 67 66 67 68 68 67 65 65 66 67 68 69 68 68 69 70 71 72 72 72 72 72 72 74 72 70 71 71 70 71 71 69 69 70 71 70 69 70 69 69 67 55 56 51 55 63
62 62 63 64 64 64 64 63 62 61 61 61 63 64 64 64 64 66 68 67 67 67 66 65 65 65 65 66 67 67 68 69 69 69 70 71 72 71 69 60 52 59 71 70 62 49 46 53 68 68 71 70 70 70 69 69 67 51 45 44 43 43 44
62 61 60 60 61 62 63 62 62 61 60 61 62 63 63 63 64 64 66 66 67 67 66 65 65 65 65 66 66 66 67 68 68 68 68 69 69 69 68 68 66 47 46 56 58 50 41 39 41 44 50 62 70 64 50 51 47 44 42 41 42 41 41
64 63 62 61 60 60 62 62 62 62 61 62 63 63 63 63 63 64 65 65 66 66 66 66 65 64 65 66 66 65 66 67 67 67 67 67 68 68 68 69 67 65 50 46 50 47 42 43 43 43 45 46 51 62 67 54 47 42 42 41 41 42 41
MSLP
1016.15 1016.47 1016.63 1016.63 1016.67 1016.83 1016.95 1017.07 1017.15 1017.47 1017.71 1017.95 1018.15 1018.31 1018.51 1018.63 1018.83 1019.03 1019.31 1019.63 1019.91 1020.15 1020.23 1020.35 1020.47 1020.51 1020.67 1020.75 1020.83 1020.95 1021.03 1021.19 1021.31 1021.55 1021.75 1021.83 1021.83 1021.99 1022.19 1022.15 1022.31 1022.43 1022.39 1022.63 1022.67 1022.79 1022.67 1022.63 1022.75 1022.79 1022.83 1022.91 1023.03 1023.11 1023.19 1023.23 1023.35 1023.35 1023.39 1023.47 1023.63 1023.79 1023.87
1016.43 1016.27 1016.43 1016.59 1016.67 1016.71 1016.67 1016.71 1016.95 1017.15 1017.43 1017.67 1017.99 1018.23 1018.31 1018.51 1018.71 1018.95 1019.15 1019.39 1019.63 1019.87 1020.07 1020.27 1020.47 1020.51 1020.55 1020.67 1020.67 1020.87 1021.07 1021.15 1021.23 1021.35 1021.47 1021.71 1021.79 1021.83 1021.83 1021.99 1022.11 1022.31 1022.31 1022.27 1022.35 1022.39 1022.51 1022.55 1022.63 1022.75 1022.83 1022.87 1022.95 1022.99 1023.11 1023.19 1023.27 1023.35 1023.43 1023.55 1023.75 1023.87 1023.91
1016.43 1016.23 1016.27 1016.47 1016.55 1016.63 1016.71 1016.75 1016.87 1016.99 1017.23 1017.47 1017.75 1018.07 1018.19 1018.27 1018.31 1018.59 1018.91 1019.27 1019.63 1019.79 1019.87 1020.11 1020.23 1020.35 1020.43 1020.51 1020.71 1020.87 1020.91 1020.99 1021.15 1021.35 1021.59 1021.59 1021.67 1021.59 1021.63 1021.75 1021.91 1022.03 1022.03 1022.11 1022.23 1022.35 1022.31 1022.47 1022.55 1022.59 1022.71 1022.83 1022.83 1022.95 1023.03 1023.19 1023.27 1023.35 1023.47 1023.59 1023.75 1023.83 1023.99
1016.35 1016.27 1016.19 1016.15 1016.19 1016.27 1016.39 1016.55 1016.75 1016.87 1016.91 1017.07 1017.31 1017.51 1017.79 1018.03 1018.03 1018.35 1018.59 1018.87 1019.35 1019.63 1019.95 1019.99 1020.11 1020.27 1020.35 1020.59 1020.71 1020.79 1020.87 1020.87 1020.91 1021.03 1021.11 1021.15 1021.35 1021.39 1021.63 1021.75 1021.87 1021.83 1022.11 1022.19 1022.03 1022.11 1022.11 1022.31 1022.51 1022.59 1022.75 1022.87 1022.91 1022.91 1022.99 1023.11 1023.15 1023.31 1023.43 1023.63 1023.75 1023.75 1023.87
1016.31 1016.23 1016.39 1016.51 1016.55 1016.63 1016.63 1016.67 1016.75 1016.79 1016.91 1016.87 1017.07 1017.23 1017.47 1017.67 1017.91 1018.19 1018.43 1018.55 1018.75 1019.15 1019.23 1019.47 1019.67 1019.95 1020.15 1020.27 1020.43 1020.51 1020.67 1020.75 1020.83 1020.83 1020.87 1020.95 1021.07 1021.27 1021.55 1021.67 1021.71 1021.79 1021.79 1021.83 1021.95 1022.15 1022.27 1022.35 1022.39 1022.51 1022.63 1022.79 1022.87 1022.91 1023.07 1023.11 1023.19 1023.27 1023.43 1023.51 1023.75 1023.67 1023.75
1016.47 1016.51 1016.63 1016.59 1016.71 1016.75 1016.75 1016.59 1016.51 1016.59 1016.75 1017.03 1017.15 1017.31 1017.39 1017.55 1017.79 1018.15 1018.31 1018.59 1018.75 1018.83 1019.07 1019.31 1019.55 1019.71 1020.07 1020.07 1020.19 1020.35 1020.43 1020.59 1020.63 1020.71 1020.83 1020.95 1021.15 1021.31 1021.47 1021.51 1021.51 1021.59 1021.71 1021.79 1021.71 1021.91 1022.07 1022.19 1022.23 1022.31 1022.47 1022.47 1022.63 1022.75 1022.79 1022.95 1023.03 1023.07 1023.27 1023.43 1023.55 1023.55 1023.59
1016.59 1016.55 1016.67 1016.71 1016.63 1016.71 1016.75 1016.79 1016.59 1016.47 1016.55 1016.71 1016.91 1017.03 1017.19 1017.39 1017.79 1017.91 1018.11 1018.47 1018.67 1019.03 1019.19 1019.35 1019.39 1019.55 1019.75 1019.87 1020.15 1020.31 1020.59 1020.59 1020.67 1020.79 1020.75 1020.87 1020.95 1021.19 1021.23 1021.27 1021.35 1021.39 1021.31 1021.43 1021.71 1021.71 1021.95 1022.11 1022.15 1022.23 1022.31 1022.39 1022.51 1022.63 1022.79 1022.99 1023.03 1022.99 1023.15 1023.35 1023.55 1023.51 1023.55
1016.79 1016.91 1016.75 1016.59 1016.59 1016.51 1016.59 1016.71 1016.67 1016.55 1016.59 1016.71 1017.03 1017.23 1017.35 1017.31 1017.51 1017.99 1018.27 1018.35 1018.59 1018.83 1019.03 1019.23 1019.35 1019.47 1019.67 1019.83 1019.99 1020.27 1020.43 1020.43 1020.47 1020.59 1020.71 1020.87 1020.95 1021.11 1021.07 1021.15 1021.23 1021.23 1021.35 1021.59 1021.51 1021.59 1021.79 1021.91 1021.91 1022.03 1022.19 1022.31 1022.43 1022.51 1022.59 1022.75 1022.91 1022.87 1022.91 1023.19 1023.35 1023.39 1023.19
1016.63 1016.63 1016.87 1016.83 1016.59 1016.63 1016.71 1016.71 1016.67 1016.67 1016.79 1016.95 1017.11 1017.19 1017.23 1017.39 1017.63 1017.83 1018.11 1018.31 1018.47 1018.71 1018.91 1018.91 1019.07 1019.07 1019.39 1019.75 1020.03 1020.23 1020.19 1020.27 1020.43 1020.55 1020.71 1020.87 1020.87 1020.91 1020.83 1020.87 1020.99 1021.03 1021.35 1021.39 1021.35 1021.39 1021.55 1021.71 1021.79 1022.03 1022.11 1022.27 1022.35 1022.47 1022.51 1022.59 1022.63 1022.59 1022.79 1022.95 1023.15 1023.27 1023.19
1016.67 1016.99 1017.03 1016.87 1016.87 1017.07 1016.91 1016.79 1016.91 1016.99 1017.15 1017.23 1017.31 1017.31 1017.31 1017.31 1017.51 1017.67 1017.91 1018.15 1018.35 1018.59 1018.67 1018.79 1018.91 1019.07 1019.39 1019.63 1019.79 1019.87 1020.03 1020.27 1020.27 1020.39 1020.51 1020.75 1020.71 1020.83 1020.71 1020.67 1020.79 1020.83 1021.07 1021.15 1021.11 1021.35 1021.43 1021.55 1021.67 1021.87 1022.15 1022.27 1022.35 1022.39 1022.43 1022.47 1022.43 1022.47 1022.51 1022.75 1022.87 1023.03 1023.11
1016.87 1017.07 1017.23 1017.31 1017.35 1017.31 1017.19 1017.07 1017.23 1017.35 1017.27 1017.23 1017.15 1017.15 1017.23 1017.35 1017.51 1017.67 1017.87 1018.03 1018.31 1018.43 1018.43 1018.59 1018.75 1018.99 1019.23 1019.47 1019.79 1019.91 1020.03 1020.07 1020.15 1020.35 1020.43 1020.51 1020.47 1020.67 1020.67 1020.71 1020.71 1020.71 1020.95 1020.99 1021.15 1021.15 1021.27 1021.51 1021.55 1021.87 1022.07 1022.19 1022.23 1022.27 1022.31 1022.31 1022.27 1022.39 1022.39 1022.39 1022.43 1022.59 1022.71
1017.11 1017.19 1017.39 1017.51 1017.59 1017.55 1017.59 1017.39 1017.27 1017.39 1017.39 1017.23 1016.99 1016.99 1017.07 1017.19 1017.31 1017.55 1017.79 1018.03 1018.07 1018.39 1018.59 1018.75 1018.83 1019.07 1019.35 1019.51 1019.83 1019.99 1020.15 1020.15 1020.11 1020.15 1020.23 1020.31 1020.39 1020.47 1020.55 1020.59 1020.67 1020.71 1020.75 1020.83 1021.11 1021.19 1021.19 1021.39 1021.47 1021.63 1021.87 1021.95 1021.95 1021.95 1022.03 1022.07 1022.11 1022.23 1022.27 1022.19 1022.19 1022.35 1022.43
1017.39 1017.51 1017.39 1017.51 1017.59 1017.59 1017.55 1017.55 1017.47 1017.39 1017.39 1017.23 1017.15 1017.27 1017.39 1017.47 1017.59 1017.67 1017.83 1018.07 1018.19 1018.35 1018.63 1018.83 1018.99 1019.23 1019.43 1019.55 1019.75 1019.95 1020.11 1020.11 1020.07 1019.95 1020.03 1020.15 1020.27 1020.23 1020.31 1020.43 1020.47 1020.55 1020.67 1020.63 1020.83 1021.03 1021.15 1021.11 1021.31 1021.35 1021.51 1021.63 1021.67 1021.75 1021.79 1021.87 1021.87 1022.03 1022.07 1022.11 1022.11 1022.19 1022.35
1017.67 1017.83 1017.71 1017.63 1017.75 1017.79 1017.83 1017.63 1017.55 1017.59 1017.51 1017.35 1017.39 1017.35 1017.43 1017.47 1017.55 1017.79 1017.99 1018.31 1018.39 1018.47 1018.75 1018.99 1019.15 1019.39 1019.47 1019.51 1019.75 1019.91 1019.99 1019.95 1019.95 1020.03 1020.07 1020.11 1020.23 1020.35 1020.31 1020.31 1020.39 1020.51 1020.55 1020.59 1020.79 1020.87 1020.91 1020.95 1021.03 1021.07 1021.15 1021.27 1021.39 1021.39 1021.43 1021.59 1021.71 1021.75 1021.83 1021.91 1021.95 1022.03 1022.15
1017.67 1017.79 1017.91 1018.19 1018.15 1017.67 1017.51 1017.63 1017.67 1017.71 1017.67 1017.59 1017.63 1017.63 1017.55 1017.67 1017.83 1017.95 1018.19 1018.39 1018.63 1018.75 1018.99 1019.03 1019.19 1019.43 1019.55 1019.67 1019.83 1019.91 1019.87 1019.91 1019.91 1019.87 1019.99 1020.15 1020.31 1020.39 1020.47 1020.51 1020.55 1020.55 1020.59 1020.63 1020.71 1020.59 1020.59 1020.59 1020.67 1020.87 1020.99 1020.99 1021.11 1021.19 1021.19 1021.31 1021.39 1021.35 1021.51 1021.71 1021.83 1021.83 1021.95
1017.43 1017.75 1017.99 1018.15 1018.19 1018.11 1017.83 1017.51 1017.43 1017.67 1017.79 1017.99 1017.95 1017.79 1017.75 1017.87 1018.11 1018.31 1018.55 1018.79 1018.87 1019.07 1019.11 1019.07 1019.27 1019.55 1019.91 1020.11 1020.11 1020.11 1020.11 1020.11 1020.15 1020.19 1020.15 1020.27 1020.43 1020.47 1020.47 1020.43 1020.51 1020.55 1020.67 1020.71 1020.63 1020.63 1020.63 1020.67 1020.71 1020.79 1020.91 1020.99 1020.99 1020.99 1020.99 1021.03 1020.95 1020.99 1021.19 1021.31 1021.43 1021.55 1021.59
1017.59 1017.95 1018.07 1018.07 1018.11 1018.07 1017.91 1017.91 1017.83 1017.87 1018.03 1018.07 1017.99 1018.03 1018.15 1018.35 1018.43 1018.43 1018.63 1018.75 1018.87 1018.99 1018.87 1018.75 1019.35 1019.95 1020.31 1020.23 1019.91 1019.91 1020.07 1020.23 1020.27 1020.19 1020.35 1020.39 1020.39 1020.35 1020.47 1020.59 1020.59 1020.75 1020.83 1020.79 1020.75 1020.75 1020.71 1020.67 1020.71 1020.67 1020.63 1020.79 1020.87 1020.95 1020.83 1020.71 1020.59 1020.91 1021.19 1021.35 1021.47 1021.51 1021.51
1018.15 1018.27 1018.23 1018.07 1018.07 1018.11 1018.11 1018.19 1018.35 1018.31 1018.27 1018.27 1018.27 1018.31 1018.35 1018.51 1018.59 1018.75 1019.11 1019.07 1019.11 1019.11 1019.03 1019.07 1019.31 1019.75 1020.03 1020.03 1019.87 1019.79 1019.87 1019.99 1020.15 1020.27 1020.35 1020.43 1020.47 1020.31 1020.31 1020.43 1020.59 1020.75 1020.83 1020.79 1020.79 1020.79 1020.63 1020.71 1020.75 1020.71 1020.63 1020.63 1020.75 1020.83 1020.79 1020.63 1020.91 1021.03 1021.15 1021.27 1021.39 1021.51 1021.39
1018.15 1018.31 1018.35 1018.23 1018.27 1018.31 1018.43 1018.59 1018.59 1018.63 1018.71 1018.63 1018.51 1018.51 1018.63 1018.67 1019.03 1019.35 1019.39 1019.51 1019.47 1019.39 1019.55 1019.63 1019.79 1019.99 1020.07 1019.95 1019.75 1019.55 1019.51 1019.75 1019.99 1020.11 1020.23 1020.31 1020.27 1020.23 1020.23 1020.39 1020.55 1020.63 1020.71 1020.83 1020.67 1020.63 1020.87 1020.83 1020.79 1020.79 1020.75 1020.87 1021.07 1021.03 1020.91 1020.91 1021.51 1021.39 1021.19 1021.07 1021.07 1021.23 1021.31
1018.31 1018.55 1018.51 1018.47 1018.63 1018.67 1018.63 1018.71 1018.91 1019.07 1019.11 1019.11 1019.03 1018.75 1018.71 1018.75 1019.11 1019.39 1019.43 1019.63 1019.91 1020.15 1020.23 1020.23 1020.35 1020.43 1020.47 1020.27 1020.11 1019.99 1019.87 1019.87 1019.91 1020.07 1020.03 1019.95 1020.07 1020.15 1020.23 1020.31 1020.51 1020.51 1020.43 1020.47 1020.55 1020.75 1020.87 1020.75 1020.83 1020.83 1020.95 1021.03 1021.15 1021.15 1020.99 1020.95 1021.51 1021.59 1021.43 1021.19 1020.99 1020.87 1020.95
1018.55 1018.79 1018.95 1018.91 1019.07 1018.99 1018.95 1018.91 1018.99 1019.07 1019.11 1019.19 1019.47 1019.43 1019.11 1019.19 1019.23 1019.55 1019.95 1020.11 1020.19 1020.31 1020.59 1020.59 1020.39 1020.59 1020.67 1020.75 1020.55 1020.43 1020.35 1020.31 1020.23 1020.23 1020.15 1020.15 1020.19 1020.35 1020.47 1020.59 1020.63 1020.67 1020.67 1020.63 1020.75 1020.87 1020.91 1020.91 1020.91 1020.79 1020.79 1020.71 1020.67 1020.83 1020.79 1021.23 1021.63 1021.43 1021.27 1020.99 1020.83 1020.75 1020.63
1018.47 1018.79 1019.11 1019.11 1019.19 1019.23 1019.11 1019.19 1019.23 1019.39 1019.55 1019.43 1019.39 1019.75 1019.71 1019.83 1019.79 1019.91 1020.31 1020.31 1020.51 1020.59 1020.55 1020.59 1020.75 1020.99 1020.87 1020.95 1020.79 1020.75 1020.67 1020.59 1020.63 1020.63 1020.55 1020.47 1020.43 1020.51 1020.67 1020.79 1020.87 1020.95 1020.83 1020.91 1020.91 1020.79 1020.75 1020.79 1020.67 1020.75 1020.79 1020.79 1020.87 1020.91 1021.27 1021.59 1021.75 1021.47 1021.19 1020.99 1020.71 1020.51 1020.19
1018.15 1018.51 1018.67 1018.87 1019.11 1019.47 1019.51 1019.39 1019.31 1019.47 1019.51 1019.67 1019.87 1020.03 1020.15 1020.15 1020.15 1020.27 1020.51 1020.87 1021.19 1021.03 1020.99 1020.95 1021.15 1021.23 1021.23 1021.23 1021.07 1020.91 1020.75 1020.71 1020.75 1020.83 1020.75 1020.75 1020.79 1020.87 1020.99 1021.03 1021.03 1020.99 1020.91 1021.11 1021.07 1021.07 1021.11 1021.03 1020.99 1020.87 1020.83 1020.91 1020.95 1021.27 1021.67 1021.67 1021.83 1021.71 1021.39 1021.07 1020.67 1020.31 1020.07
1018.07 1018.43 1018.75 1019.03 1019.23 1019.39 1019.59 1019.59 1019.51 1019.47 1019.59 1019.91 1020.11 1020.19 1020.23 1020.23 1020.39 1020.59 1020.91 1021.19 1021.27 1021.15 1021.27 1021.23 1021.43 1021.39 1021.27 1021.15 1020.95 1020.83 1020.75 1020.71 1020.67 1020.79 1020.83 1020.83 1020.99 1021.07 1021.19 1021.15 1021.03 1020.87 1020.75 1021.15 1021.39 1021.47 1021.39 1021.31 1021.39 1021.47 1021.43 1021.27 1021.31 1021.39 1021.63 1021.71 1021.83 1021.83 1021.59 1021.31 1020.95 1020.47 1020.31
1018.39 1018.67 1018.91 1019.11 1019.39 1019.67 1019.71 1019.75 1019.79 1019.83 1019.87 1019.99 1020.31 1020.39 1020.27 1020.43 1020.59 1020.79 1021.11 1021.19 1021.31 1021.39 1021.55 1021.71 1021.75 1021.71 1021.55 1021.35 1021.11 1020.95 1020.99 1021.07 1021.03 1021.15 1021.35 1021.43 1021.35 1021.19 1021.19 1021.23 1021.27 1021.15 1021.15 1021.31 1021.35 1021.39 1021.27 1021.27 1021.63 1021.79 1021.71 1021.67 1021.63 1021.59 1021.63 1021.75 1021.83 1021.95 1021.83 1021.59 1021.23 1020.71 1020.35
1018.91 1019.15 1019.27 1019.23 1019.35 1019.63 1019.83 1019.83 1019.95 1020.27 1020.51 1020.59 1020.67 1020.47 1020.43 1020.51 1020.79 1021.27 1021.55 1021.71 1021.59 1021.71 1021.87 1021.95 1021.99 1021.83 1021.71 1021.59 1021.47 1021.35 1021.31 1021.23 1021.31 1021.27 1021.35 1021.39 1021.43 1021.43 1021.43 1021.35 1021.35 1021.35 1021.31 1021.35 1021.23 1021.39 1021.51 1021.67 1021.91 1022.03 1021.99 1021.95 1021.95 1021.87 1021.79 1021.79 1021.79 1021.99 1021.99 1021.87 1021.59 1021.23 1020.83
1018.83 1018.95 1019.27 1019.39 1019.63 1019.71 1019.99 1020.23 1020.39 1020.71 1020.83 1020.87 1020.71 1020.63 1020.63 1020.71 1021.03 1021.47 1021.63 1021.67 1021.75 1021.95 1022.03 1021.95 1021.83 1021.75 1021.71 1021.63 1021.59 1021.63 1021.63 1021.51 1021.51 1021.59 1021.59 1021.55 1021.59 1021.51 1021.51 1021.43 1021.51 1021.51 1021.51 1021.67 1021.47 1021.47 1021.75 1021.99 1022.11 1022.19 1022.35 1022.23 1022.03 1021.91 1021.83 1021.79 1021.95 1022.15 1022.15 1022.07 1021.95 1021.67 1021.23
1019.03 1019.19 1019.35 1019.63 1019.83 1019.91 1020.19 1020.51 1020.75 1020.75 1020.83 1020.87 1020.83 1020.79 1020.87 1021.03 1021.55 1021.83 1021.87 1021.95 1022.19 1022.23 1022.07 1022.03 1021.91 1021.79 1021.79 1021.83 1021.83 1021.79 1021.79 1021.79 1021.75 1021.63 1021.67 1021.67 1021.59 1021.71 1021.83 1021.79 1021.75 1021.79 1021.95 1022.03 1022.15 1022.35 1022.47 1022.47 1022.39 1022.43 1022.47 1022.39 1022.23 1022.15 1022.15 1021.99 1021.95 1021.99 1021.99 1021.91 1021.87 1021.83 1021.63
1019.43 1019.51 1019.75 1019.95 1020.11 1020.19 1020.31 1020.75 1020.91 1020.99 1021.07 1021.07 1021.07 1021.11 1021.11 1021.27 1021.79 1022.07 1022.15 1022.47 1022.63 1022.39 1022.27 1022.19 1022.11 1022.07 1022.07 1022.11 1022.15 1022.19 1022.15 1022.11 1022.07 1021.99 1021.87 1021.91 1021.87 1021.95 1022.11 1022.07 1022.11 1022.27 1022.35 1022.55 1022.67 1022.75 1022.87 1022.87 1022.75 1022.55 1022.47 1022.27 1022.03 1021.87 1021.79 1021.67 1021.51 1021.67 1021.67 1021.79 1021.83 1021.83 1021.79
1019.67 1019.75 1019.87 1019.83 1020.03 1020.39 1020.55 1021.03 1021.23 1021.35 1021.43 1021.47 1021.59 1021.55 1021.59 1021.67 1021.99 1022.19 1022.43 1022.71 1022.59 1022.47 1022.39 1022.35 1022.35 1022.35 1022.39 1022.47 1022.51 1022.51 1022.39 1022.35 1022.27 1022.19 1022.15 1022.15 1022.15 1022.23 1022.39 1022.47 1022.47 1022.55 1022.63 1022.67 1022.71 1022.79 1022.87 1022.79 1022.59 1022.39 1022.27 1022.19 1021.99 1021.79 1021.67 1021.55 1021.47 1021.55 1021.83 1021.91 1022.03 1021.99 1021.95
1019.71 1019.87 1020.07 1020.31 1020.51 1020.59 1020.63 1020.95 1021.39 1021.59 1021.79 1021.83 1021.87 1021.83 1021.87 1021.87 1022.15 1022.43 1022.67 1022.75 1022.55 1022.47 1022.43 1022.47 1022.51 1022.59 1022.67 1022.67 1022.67 1022.63 1022.51 1022.47 1022.43 1022.39 1022.31 1022.27 1022.23 1022.39 1022.47 1022.59 1022.55 1022.79 1022.75 1022.67 1022.67 1022.67 1022.75 1022.75 1022.55 1022.55 1022.47 1022.35 1022.23 1022.07 1021.87 1021.71 1021.55 1021.51 1021.67 1021.79 1021.75 1021.75 1021.71
1019.91 1019.91 1020.11 1020.39 1020.67 1020.75 1020.83 1020.99 1021.23 1021.55 1021.91 1022.07 1021.99 1021.99 1021.99 1021.99 1022.07 1022.55 1022.83 1022.71 1022.63 1022.47 1022.43 1022.47 1022.59 1022.71 1022.79 1022.75 1022.75 1022.67 1022.47 1022.39 1022.39 1022.43 1022.39 1022.35 1022.31 1022.39 1022.39 1022.47 1022.55 1022.75 1022.79 1022.75 1022.75 1022.71 1022.71 1022.67 1022.55 1022.47 1022.43 1022.47 1022.43 1022.39 1022.23 1022.11 1021.95 1021.91 1021.79 1021.71 1021.71 1021.75 1021.91
1019.59 1019.87 1020.15 1020.59 1020.87 1020.83 1020.91 1021.03 1021.31 1021.67 1021.91 1022.15 1022.11 1022.03 1022.07 1022.23 1022.31 1022.51 1022.63 1022.67 1022.55 1022.47 1022.51 1022.59 1022.67 1022.75 1022.79 1022.79 1022.67 1022.63 1022.55 1022.51 1022.39 1022.31 1022.31 1022.35 1022.31 1022.31 1022.35 1022.39 1022.43 1022.63 1022.75 1022.75 1022.75 1022.79 1022.75 1022.67 1022.67 1022.59 1022.59 1022.67 1022.63 1022.55 1022.51 1022.51 1022.47 1022.43 1022.31 1022.23 1022.11 1021.95 1021.91
1019.75 1019.91 1020.23 1020.39 1020.75 1020.83 1021.03 1021.31 1021.63 1021.91 1022.07 1022.31 1022.39 1022.31 1022.39 1022.51 1022.63 1022.67 1022.59 1022.55 1022.51 1022.51 1022.71 1022.83 1022.91 1022.91 1022.91 1022.83 1022.75 1022.67 1022.59 1022.59 1022.67 1022.51 1022.35 1022.39 1022.31 1022.35 1022.43 1022.43 1022.39 1022.55 1022.75 1022.83 1022.87 1022.95 1022.99 1022.87 1022.91 1022.91 1022.75 1022.75 1022.71 1022.71 1022.71 1022.71 1022.75 1022.87 1022.95 1022.87 1022.79 1022.55 1022.31
1020.47 1020.27 1020.23 1020.59 1020.79 1020.95 1021.27 1021.59 1021.91 1022.19 1022.39 1022.63 1022.63 1022.59 1022.63 1022.71 1022.75 1022.75 1022.79 1022.75 1022.75 1022.79 1022.95 1023.15 1023.23 1023.19 1023.15 1023.07 1022.95 1022.99 1022.91 1022.79 1022.67 1022.55 1022.51 1022.55 1022.55 1022.63 1022.67 1022.63 1022.55 1022.79 1022.95 1022.95 1022.91 1022.95 1022.87 1022.91 1022.99 1022.99 1022.91 1022.79 1022.91 1022.95 1022.95 1022.99 1023.11 1023.35 1023.95 1023.99 1024.11 1023.95 1023.27
1021.07 1020.91 1020.91 1020.87 1021.03 1021.23 1021.47 1021.75 1022.07 1022.43 1022.67 1022.87 1022.83 1022.79 1022.87 1022.99 1023.03 1022.99 1022.91 1022.99 1022.99 1023.03 1023.19 1023.27 1023.35 1023.39 1023.47 1023.35 1023.31 1023.23 1023.15 1023.03 1022.91 1022.91 1022.79 1022.67 1022.67 1022.87 1023.19 1023.47 1023.47 1023.19 1022.99 1023.27 1023.47 1023.59 1023.55 1023.31 1023.11 1023.07 1022.95 1022.99 1023.07 1023.03 1023.19 1023.23 1023.47 1024.07 1024.31 1024.35 1024.31 1024.19 1024.15
1021.07 1020.91 1020.91 1021.31 1021.71 1021.79 1021.79 1021.99 1022.31 1022.63 1022.91 1022.99 1022.91 1022.91 1022.95 1023.07 1023.15 1023.23 1023.23 1023.23 1023.23 1023.27 1023.35 1023.39 1023.47 1023.55 1023.55 1023.55 1023.51 1023.55 1023.43 1023.31 1023.23 1023.19 1023.11 1023.03 1022.95 1022.99 1023.23 1023.47 1023.63 1023.75 1023.75 1023.59 1023.71 1023.75 1023.75 1023.75 1023.79 1023.71 1023.63 1023.39 1023.23 1023.55 1023.79 1023.87 1024.07 1024.35 1024.59 1024.59 1024.47 1024.43 1024.27
1020.75 1020.75 1020.79 1021.07 1021.63 1021.95 1021.95 1022.19 1022.43 1022.59 1022.79 1022.91 1022.91 1022.99 1023.03 1023.15 1023.27 1023.39 1023.43 1023.47 1023.47 1023.47 1023.51 1023.51 1023.55 1023.63 1023.63 1023.59 1023.67 1023.75 1023.67 1023.55 1023.51 1023.39 1023.31 1023.27 1023.19 1023.15 1023.23 1023.19 1023.39 1023.75 1023.95 1023.99 1023.91 1023.99 1023.99 1023.95 1023.95 1024.03 1023.99 1023.91 1023.79 1023.63 1023.59 1023.91 1024.23 1024.59 1024.67 1024.59 1024.55 1024.39 1024.35
Wind_Speed
11 11 10 9 10 12 12 12 13 12 12 12 12 13 12 11 11 10 10 10 12 11 10 10 9 8 9 8 8 7 7 6 5 5 5 5 5 5 5 5 5 4 4 4 4 4 4 4 4 4 3 4 4 4 3 3 3 3 3 3 2 2 3
10 11 10 10 10 11 12 12 12 11 11 11 11 12 12 12 11 11 11 11 12 12 11 10 10 9 9 8 7 8 8 7 6 5 4 4 4 4 5 5 5 4 4 4 3 3 3 4 4 4 3 3 4 3 3 3 3 3 3 3 3 3 3
9 9 9 10 10 10 11 10 10 10 11 10 11 11 12 12 13 13 12 12 12 11 10 11 11 10 9 8 8 9 8 8 7 7 7 6 7 7 5 4 5 4 4 4 3 3 4 4 4 3 3 3 3 3 3 3 3 3 4 3 3 3 3
8 9 9 10 10 10 11 11 12 11 10 12 13 14 13 13 12 10 11 12 12 11 11 11 10 10 10 9 9 8 9 8 7 7 7 6 6 6 5 5 4 4 4 5 4 4 3 4 4 3 3 3 3 3 3 3 3 3 3 3 3 3 3
8 7 6 7 8 8 9 10 11 10 11 11 11 11 11 11 11 10 10 11 12 13 13 12 10 9 7 9 7 7 8 8 7 6 6 5 5 5 5 6 5 6 5 4 4 4 4 4 4 4 4 4 4 3 4 3 4 3 3 3 3 3 4
9 7 5 5 6 6 6 8 10 11 12 11 11 11 10 11 10 11 11 10 10 9 9 9 10 9 9 9 8 7 7 7 6 6 6 5 5 5 6 6 6 6 5 5 4 5 5 5 5 5 5 4 4 4 4 4 4 4 3 3 3 3 4
8 7 6 5 5 6 7 6 7 9 8 8 8 8 9 10 11 11 10 10 11 11 11 11 10 9 9 8 8 8 9 8 7 7 6 6 6 6 6 5 5 5 4 3 4 4 5 5 5 5 5 4 4 4 4 4 4 3 3 3 4 4 4
5 5 5 6 6 6 7 7 7 7 6 6 7 8 10 10 10 10 10 9 9 9 9 10 10 9 8 7 7 8 8 8 7 7 6 7 6 7 6 5 5 5 4 5 4 5 5 5 5 5 5 5 5 5 5 4 4 5 4 4 4 5 4
6 6 5 5 6 6 5 5 6 6 8 8 9 10 10 9 9 10 10 9 9 10 10 9 9 8 8 7 7 8 7 7 7 7 8 8 7 8 8 6 5 4 5 5 4 5 5 5 5 5 5 5 4 5 5 5 5 4 5 5 5 5 6
7 7 6 6 5 4 5 6 5 6 7 7 8 9 10 9 8 8 8 9 9 10 10 9 8 7 7 7 8 9 8 7 7 8 8 9 7 8 8 7 6 5 5 5 5 4 5 5 5 5 5 5 5 5 5 5 5 5 5 6 6 6 6
7 6 6 5 6 6 6 6 7 6 6 7 8 8 8 8 8 8 9 8 8 8 9 8 7 7 7 7 8 7 7 8 8 8 8 8 7 7 7 7 6 5 6 5 5 5 4 4 5 5 5 6 6 6 6 6 6 6 6 6 6 6 6
7 7 7 7 6 8 9 8 7 7 8 7 8 8 8 8 8 8 7 7 6 6 6 4 4 5 5 5 6 6 6 7 7 8 8 8 7 7 7 6 7 6 6 6 6 5 5 5 5 5 6 6 6 6 6 5 6 6 6 7 6 6 6
6 5 6 8 7 6 6 7 9 10 9 7 6 5 4 5 5 6 7 6 6 5 6 6 5 5 5 5 5 5 6 6 7 6 6 6 6 5 5 6 6 7 7 6 7 7 7 7 7 6 6 6 6 7 6 6 6 6 6 6 6 6 6
7 7 7 6 5 8 9 9 8 9 8 8 8 8 7 7 7 8 8 7 7 7 7 6 6 7 6 6 5 6 6 7 7 6 4 3 3 4 4 3 3 4 4 5 6 7 8 8 7 7 7 7 7 7 6 6 6 6 6 6 7 7 7
8 8 8 8 5 7 10 10 8 8 8 8 9 9 10 9 8 7 7 7 7 7 8 7 5 5 5 6 5 5 6 6 6 5 5 4 4 4 4 3 3 3 3 4 5 5 6 6 7 7 7 7 7 7 6 6 6 6 6 6 7 7 8
10 8 8 8 7 6 7 9 10 9 7 6 9 10 9 9 8 8 9 8 9 9 8 6 4 3 4 5 4 4 4 5 4 4 5 4 4 3 4 4 3 2 3 3 3 4 4 5 5 6 7 7 7 7 6 6 5 6 9 7 6 6 6
9 9 8 8 8 8 8 7 7 7 7 8 9 10 10 9 8 9 10 8 8 8 6 4 3 4 5 5 6 6 5 4 4 5 5 4 4 4 4 4 3 2 2 3 3 3 2 4 5 6 6 6 7 6 6 6 4 4 8 9 9 7 7
10 9 9 9 10 9 9 10 10 9 10 11 11 12 10 9 8 10 11 11 12 10 7 4 5 7 7 5 6 8 8 7 6 5 4 4 6 6 6 4 4 4 4 4 4 3 4 4 4 3 4 4 5 6 4 3 8 4 2 6 7 7 7
10 10 10 9 10 11 11 11 11 12 12 12 12 12 11 11 11 11 9 10 9 10 9 9 9 9 8 7 6 5 7 7 6 6 6 6 5 5 5 5 5 5 5 5 4 4 5 5 4 4 2 1 1 1 0 1 9 5 3 3 6 8 8
11 11 11 11 10 12 13 12 12 10 9 10 9 10 9 9 11 10 10 9 8 8 9 9 9 9 8 7 7 8 8 6 6 5 5 6 6 6 5 5 4 3 3 3 4 5 6 6 5 3 2 1 1 1 1 1 6 4 3 1 3 6 8
11 12 12 10 9 10 12 12 13 13 11 12 9 8 9 11 11 11 10 8 10 9 9 7 8 8 8 7 7 7 6 7 7 7 7 6 7 7 6 4 3 3 3 2 3 3 3 4 5 4 5 5 6 3 2 4 8 5 3 2 3 5 6
13 12 11 10 9 9 11 11 11 10 9 8 11 10 9 10 8 10 10 9 9 7 9 9 9 8 8 8 7 6 5 5 5 6 6 6 6 6 6 5 4 4 3 3 1 1 1 2 1 2 2 3 3 3 5 5 8 6 5 4 1 6 4
13 13 14 12 12 10 8 9 11 11 11 10 10 8 7 6 8 10 11 10 7 7 8 9 9 8 8 7 6 6 6 5 6 6 6 5 5 6 5 4 4 4 3 4 4 5 4 4 5 4 3 3 5 7 6 6 8 9 9 8 6 2 2
12 11 11 11 11 11 10 9 9 9 10 11 9 7 7 8 9 9 9 9 8 9 9 10 9 7 7 7 7 7 7 7 7 7 7 6 6 6 5 4 4 6 7 8 8 8 8 7 7 7 7 8 8 6 5 5 7 9 10 11 10 5 2
11 11 11 11 11 12 11 10 10 10 10 11 11 8 9 9 10 10 10 9 9 9 9 9 8 7 7 7 7 7 7 6 7 7 7 7 6 6 8 9 9 8 8 7 6 7 6 6 6 6 6 6 6 8 7 5 6 9 10 12 13 9 5
10 10 10 11 11 10 9 10 11 10 10 10 8 7 8 10 11 10 9 8 8 9 9 8 6 5 5 5 6 6 6 6 7 7 7 8 7 7 7 6 7 8 8 7 7 7 6 5 5 7 6 5 5 5 6 7 8 10 10 12 13 13 6
10 10 11 11 11 10 9 8 8 9 9 7 7 7 8 9 10 9 8 8 9 10 7 5 5 6 6 6 7 6 6 6 7 8 8 7 7 6 7 6 7 6 7 7 6 7 6 6 6 6 6 4 4 6 6 6 6 8 9 9 10 11 8
10 11 10 11 10 10 10 10 10 10 10 8 7 7 8 9 10 8 8 9 9 7 5 5 5 6 7 7 7 7 7 6 6 6 6 6 7 7 7 6 5 6 6 5 6 7 6 4 4 4 4 3 3 4 4 6 8 5 8 10 9 10 10
10 11 11 12 11 10 11 10 10 10 9 7 7 6 7 10 10 8 8 9 7 5 5 5 5 6 7 7 7 6 6 5 5 5 5 6 7 7 7 6 6 6 5 6 6 7 6 4 3 3 3 4 4 4 5 5 5 10 8 10 11 11 11
9 9 9 10 11 11 12 11 9 9 8 7 6 6 6 8 9 8 8 8 3 4 5 6 6 6 6 6 6 5 5 5 4 4 4 5 5 6 6 6 5 5 4 4 5 5 5 4 3 4 5 5 4 4 5 5 4 6 10 8 8 9 10
10 10 9 9 10 10 10 11 12 10 9 8 7 6 6 6 8 9 8 4 3 4 6 6 7 7 6 6 5 5 5 5 4 4 4 4 4 5 5 5 5 5 4 4 4 4 5 4 4 5 4 4 5 5 5 6 6 6 8 10 10 11 12
10 9 10 10 9 9 10 11 11 11 10 8 8 7 6 6 7 8 5 3 2 4 5 6 6 7 6 6 5 4 3 4 5 4 3 3 3 4 3 4 4 5 4 4 4 4 4 4 4 4 5 4 4 5 5 6 6 7 7 7 8 7 8
13 13 12 11 9 9 9 9 9 10 10 9 7 7 7 7 6 5 3 3 3 4 5 5 6 6 5 5 4 4 4 4 3 3 3 3 3 4 4 4 4 4 4 4 4 4 4 4 4 4 4 4 4 4 5 6 6 6 6 6 6 6 5
13 13 11 11 10 9 8 7 8 9 9 8 6 6 6 6 5 3 3 3 3 4 5 5 5 5 5 5 4 3 3 3 4 3 3 3 2 3 4 3 3 4 4 4 4 4 4 4 4 4 3 3 3 3 4 4 5 6 5 5 5 5 4
6 9 13 11 10 9 8 8 8 8 8 8 6 7 7 7 6 5 5 4 4 5 6 5 5 5 5 4 3 4 3 2 2 2 2 3 4 4 4 3 3 5 5 5 4 3 3 3 3 3 3 3 3 3 3 4 5 4 4 4 5 4 4
7 8 6 7 7 8 8 8 9 8 8 7 6 7 8 7 6 5 6 5 5 5 6 6 5 5 4 3 3 3 3 3 3 3 2 3 4 5 5 7 8 7 3 5 4 5 6 5 3 3 2 4 4 4 4 4 3 5 3 5 6 7 6
10 10 10 7 5 6 8 8 8 8 8 7 7 7 7 7 7 6 6 5 5 6 6 5 4 4 4 4 3 3 3 3 3 3 3 3 4 5 6 5 4 8 9 7 4 5 4 4 4 5 7 5 3 4 6 6 5 4 4 5 5 6 6
9 10 11 10 8 8 8 9 10 10 10 8 7 7 7 7 7 6 6 5 5 5 5 5 4 4 4 4 4 4 3 3 3 3 4 4 3 3 2 3 4 5 2 2 6 4 5 4 4 5 5 7 6 3 2 1 1 3 3 5 5 6 5
Wind_Direction
181 181 186 182 185 187 190 189 188 182 182 185 186 186 187 186 184 179 184 185 191 188 184 185 189 189 188 187 187 187 195 192 189 197 199 210 212 201 200 203 199 196 196 204 202 208 207 203 207 214 210 210 209 198 202 199 204 208 216 222 232 247 255
185 187 182 183 187 189 192 189 185 185 186 186 183 182 186 187 182 185 188 186 191 190 184 187 189 193 193 191 188 188 192 193 190 190 203 203 202 206 210 200 206 196 197 209 202 204 207 204 216 216 219 211 215 211 213 216 222 228 231 230 240 243 240
175 180 176 179 187 188 186 183 186 189 187 184 181 182 187 187 186 188 184 185 189 190 186 189 191 193 195 192 189 192 194 193 190 192 201 208 206 210 202 205 211 211 212 197 204 204 202 205 203 218 224 229 225 207 217 224 230 239 243 250 251 248 254
163 174 179 182 186 183 181 182 184 188 192 189 188 188 189 188 186 185 187 187 188 188 189 191 192 195 196 196 198 195 196 195 195 195 203 206 200 196 193 199 209 213 200 212 209 210 203 196 197 201 205 228 231 229 222 229 230 228 235 240 253 254 262
151 145 154 171 184 181 186 189 189 189 190 190 190 188 189 185 182 183 188 193 195 196 194 190 190 194 196 198 201 201 200 195 192 196 202 199 195 191 199 207 203 213 214 207 197 196 198 205 202 200 199 208 223 213 221 219 229 221 226 224 248 252 254
157 152 146 154 160 172 183 192 197 194 194 189 189 188 183 183 184 188 189 189 196 195 190 186 188 186 193 198 204 201 195 192 188 189 195 190 189 198 204 207 209 215 212 213 201 205 199 210 211 203 210 210 217 226 228 228 226 228 215 222 239 253 261
147 146 145 142 150 163 176 183 193 194 194 192 183 187 189 188 186 186 187 190 191 187 188 191 194 191 194 192 197 198 198 196 190 192 195 199 193 203 201 203 211 213 226 197 207 198 202 207 211 206 206 218 216 226 220 226 236 230 227 227 229 232 244
143 142 145 156 158 162 165 170 181 187 183 183 177 184 193 196 186 180 184 184 186 189 192 193 194 193 190 190 191 200 202 205 192 190 191 200 198 213 207 207 203 205 206 219 207 204 207 208 213 213 212 218 214 216 220 220 223 237 232 234 231 237 237
153 165 174 170 167 158 156 160 171 178 181 180 181 187 189 183 182 180 179 178 183 187 189 189 193 192 183 182 187 197 203 202 196 192 196 206 210 221 227 219 215 200 212 222 215 200 213 209 212 206 213 225 223 216 221 217 228 229 232 239 241 246 253
167 170 183 176 161 134 146 151 154 162 169 172 176 186 188 185 179 175 175 181 183 192 188 187 187 183 178 183 192 198 198 199 204 204 203 209 213 221 230 234 224 210 220 226 230 211 204 216 219 205 208 224 226 226 231 226 229 231 226 227 234 238 237
157 165 172 157 159 160 160 157 160 162 166 171 176 181 182 179 179 177 180 179 185 189 187 190 185 187 190 192 194 193 201 208 206 206 208 214 215 215 221 232 235 222 224 228 233 228 214 204 213 215 214 226 228 229 230 234 234 231 237 234 231 233 242
153 165 163 160 159 163 166 170 161 162 175 182 180 176 175 173 173 172 162 168 180 177 172 179 164 177 174 182 194 200 204 212 216 216 215 216 217 215 216 222 228 230 221 226 232 228 234 224 220 216 217 223 233 238 237 237 236 234 241 244 237 230 237
131 131 158 165 161 157 151 170 173 172 179 183 167 148 122 128 123 128 140 140 125 125 132 113 125 169 178 184 200 203 211 216 221 222 218 211 217 220 216 219 226 229 231 223 227 232 238 233 228 219 226 222 227 235 233 236 240 237 238 243 245 241 240
127 133 134 132 140 161 167 170 169 171 173 165 156 153 149 149 150 150 149 135 136 129 117 123 118 129 133 170 191 210 213 221 217 211 193 182 169 199 214 221 221 226 234 235 232 237 241 245 239 227 224 226 226 227 228 229 235 234 236 240 244 245 244
145 140 126 117 153 173 174 169 169 168 164 150 140 136 139 141 137 120 107 101 99 94 104 127 138 139 137 134 164 194 204 199 189 179 157 156 155 161 167 174 180 174 197 212 234 238 239 244 250 249 240 230 224 224 223 227 229 229 226 228 231 238 246
154 144 134 133 134 136 156 166 171 165 159 144 137 134 133 130 123 116 109 99 100 108 112 128 169 153 87 100 126 152 186 188 178 191 190 161 157 166 167 168 176 186 184 178 198 217 231 238 241 249 253 249 234 227 225 227 231 215 212 226 245 245 251
146 138 133 133 130 125 125 126 126 138 137 139 131 123 113 109 107 103 94 94 106 123 135 160 161 118 139 175 198 199 190 166 184 201 208 195 190 197 197 195 188 190 207 215 198 182 172 220 228 235 240 244 248 239 230 230 232 180 204 216 229 250 259
130 131 132 135 128 120 115 108 99 97 106 110 112 109 109 106 96 86 83 92 99 106 124 136 128 122 123 144 177 198 199 195 181 193 199 195 204 212 209 198 199 208 218 227 223 211 219 209 192 195 216 223 235 243 244 239 64 78 182 216 219 222 245
128 125 130 127 125 118 106 100 99 95 92 90 91 93 92 95 88 78 76 82 88 95 90 98 101 97 97 103 110 156 189 185 182 193 197 191 185 178 181 192 201 217 221 223 223 231 231 229 217 204 207 200 198 253 339 87 47 31 73 155 200 203 220
122 118 117 110 103 106 103 96 87 70 67 70 75 88 91 86 87 83 76 73 63 66 78 81 85 90 87 83 83 81 94 110 118 118 133 141 139 138 144 146 156 166 176 195 205 218 224 230 229 220 208 220 245 271 315 81 36 6 17 32 184 181 195
116 123 115 105 102 99 99 100 101 101 94 89 78 69 80 80 81 84 78 80 88 86 86 78 73 66 67 58 54 48 66 87 94 89 83 88 99 103 105 108 107 114 116 127 157 180 197 211 227 232 238 242 245 246 246 58 8 19 15 59 158 171 205
129 123 118 115 109 107 109 107 104 100 94 94 91 88 81 86 84 85 83 75 71 72 82 83 78 73 77 75 67 62 57 64 64 62 81 91 99 104 106 107 106 111 114 116 116 121 149 139 158 154 166 177 180 174 92 51 16 20 28 13 14 194 201
130 128 128 126 120 107 94 109 114 115 110 103 100 93 77 83 89 90 88 83 73 79 78 81 80 77 74 71 68 67 60 61 76 78 72 64 76 88 73 78 97 107 116 109 82 68 55 45 41 45 64 139 133 101 83 57 27 21 24 19 360 254 140
113 115 110 110 112 112 110 107 104 100 103 102 95 94 97 92 90 86 86 89 89 80 75 75 74 72 67 65 64 61 59 55 59 57 61 77 89 89 84 85 80 89 84 81 79 74 67 63 59 48 51 71 86 91 88 59 38 28 28 27 14 2 64
107 110 110 110 115 116 114 107 105 102 97 96 90 85 86 86 83 81 80 78 78 77 76 72 69 62 59 56 51 56 57 61 70 71 82 84 77 81 88 81 82 82 80 79 82 80 77 73 72 70 60 55 64 65 65 60 52 38 29 30 24 16 36
117 113 108 110 108 105 102 105 103 95 90 87 85 85 87 89 87 86 84 82 80 74 72 71 73 75 76 71 64 60 60 61 65 69 70 74 68 64 68 74 78 79 83 80 81 77 71 71 72 75 66 55 64 74 73 66 56 45 36 33 30 20 20
114 117 119 116 111 108 98 82 82 87 86 82 83 83 83 87 85 80 78 78 74 72 72 72 75 76 73 73 72 68 67 65 61 71 72 71 72 63 56 55 63 58 64 73 80 87 87 84 80 81 85 83 80 75 70 65 67 67 54 43 39 30 23
119 112 103 104 106 106 102 97 91 88 83 83 88 90 93 92 88 85 83 79 75 73 70 69 70 72 72 68 66 64 63 65 69 75 76 67 69 71 69 62 65 74 77 77 86 95 95 93 94 97 92 85 71 66 73 68 61 59 68 45 39 41 33
127 123 120 117 110 106 107 98 92 88 90 88 88 88 98 100 96 93 87 84 80 78 79 76 77 78 75 71 69 66 63 61 64 72 78 81 80 81 77 72 75 79 88 100 104 102 102 99 102 99 85 72 53 48 41 27 43 46 37 46 28 31 31
109 109 114 112 111 114 108 103 99 97 91 87 80 80 87 100 102 100 96 90 88 92 90 85 79 80 81 81 79 78 76 74 76 75 78 83 87 90 93 88 87 89 89 93 100 103 95 85 77 66 60 51 50 44 33 28 15 54 35 32 47 42 35
130 128 124 121 119 119 116 115 113 108 101 94 88 80 79 89 100 100 96 93 96 102 101 98 93 89 85 81 79 79 86 83 77 78 79 83 83 91 95 97 101 99 96 97 91 89 86 79 69 63 55 46 43 35 30 23 22 25 32 26 40 41 25
134 133 123 120 123 121 118 117 115 114 109 101 99 96 86 83 92 95 93 90 82 93 100 98 96 90 86 85 78 71 83 105 100 95 95 94 97 95 91 95 90 92 94 89 83 73 71 65 62 59 57 58 50 44 39 34 31 30 25 16 25 42 34
141 141 138 134 134 130 129 130 125 123 123 117 109 106 103 90 85 89 99 100 105 99 91 90 88 86 81 76 77 71 60 63 73 90 98 105 116 112 107 98 94 92 87 78 71 72 70 68 65 65 67 69 64 62 56 48 42 32 25 17 12 20 26
144 138 136 135 142 139 133 130 130 133 129 120 113 106 103 100 99 97 99 96 95 97 95 88 83 83 76 70 66 67 62 69 50 49 87 87 107 120 112 99 89 88 76 62 59 67 64 68 65 57 63 78 87 80 71 66 52 36 17 13 7 7 18
132 135 137 145 148 149 144 143 138 138 132 126 127 124 120 120 119 116 113 110 112 109 104 100 97 92 83 75 73 72 70 70 81 78 91 104 105 79 42 37 75 87 83 63 43 18 41 77 82 83 74 79 80 73 78 59 52 45 16 348 342 341 357
150 138 131 133 140 147 143 141 138 138 138 141 146 141 136 132 125 120 118 116 117 117 115 113 108 101 93 93 87 79 82 89 92 82 103 123 131 117 87 45 31 14 63 101 63 54 28 3 43 30 61 97 73 35 36 53 55 47 13 326 311 304 293
168 156 146 141 148 157 153 145 144 145 150 157 160 151 143 137 131 126 123 120 120 123 122 124 119 119 124 120 115 98 103 107 103 103 98 109 129 139 130 121 68 25 25 41 49 42 37 51 31 5 346 347 111 74 37 48 50 17 337 331 311 301 291
180 165 151 150 164 171 156 152 165 167 166 168 168 154 148 140 137 132 132 129 128 132 135 141 142 139 133 132 132 132 126 120 115 118 122 122 121 129 143 166 147 123 31 64 96 74 68 69 45 26 32 22 18 34 122 126 56 5 347 322 322 307 296